Regional Weather Roundup
Issued by NWS

Home | Current Version | Previous Version | Graphics & Text | Print | Product List | Glossary On
Versions: 1 2 3 4 5 6 7 8 9 10 11 12 13 14 15 16 17 18 19 20 21 22 23 24 25 26 27 28 29 30 31 32 33 34 35 36 37 38 39 40 41 42 43 44 45 46 47 48 49 50
000
ASUS43 KOAX 241510
RWRNE

WEATHER ROUNDUP FOR NEBRASKA
NATIONAL WEATHER SERVICE OMAHA NE
1000 AM CDT THU JUL 24 2014

NOTES: SATELLITE DATA IS BEING USED TO AUGMENT CLOUD COVER ABOVE
       12000 FEET.
       "FAIR" INDICATES FEW OR NO CLOUDS BELOW 12,000 FEET WITH NO
       SIGNIFICANT WEATHER AND/OR OBSTRUCTIONS TO VISIBILITY.

  * THESE STATIONS DO NOT REPORT WEATHER SUCH AS RAIN...SNOW OR FOG.

NEZ001>004-019>022-054>056-241600-
NEBRASKA PANHANDLE

CITY           SKY/WX    TMP DP  RH WIND       PRES   REMARKS
SCOTTSBLUFF    SUNNY     78  65  63 VRB3      29.99S
ALLIANCE       SUNNY     82  64  54 SW10      29.98F
CHADRON        SUNNY     87  62  43 SW8       29.89F
KIMBALL        SUNNY     84  52  33 SW8       30.06S
SIDNEY         SUNNY     87  58  37 SW15      30.04S
$$

NEZ057>060-069>072-079>082-241600-
SOUTHWEST NEBRASKA

CITY           SKY/WX    TMP DP  RH WIND       PRES   REMARKS
NORTH PLATTE   SUNNY     76  65  68 S18       30.00F
IMPERIAL       SUNNY     81  65  58 SW10      30.01F
LEXINGTON      SUNNY     77  67  69 S18       30.02F
MCCOOK         SUNNY     78  68  71 S12       30.01F
OGALLALA       SUNNY     77  66  70 SW8       30.00F
$$

NEZ005>010-023>029-035>040-094-241600-
NORTH CENTRAL NEBRASKA

CITY           SKY/WX    TMP DP  RH WIND       PRES   REMARKS
VALENTINE      SUNNY     78  65  63 S13       29.93F
AINSWORTH      SUNNY     76  64  64 S22       29.97F
BROKEN BOW     SUNNY     77  65  66 S20G26    30.02F
O`NEILL        MOSUNNY   76  61  60 SE17      30.06S
ORD            SUNNY     75  64  68 SE17      30.03S
THEDFORD       SUNNY     78  67  68 S10       29.99F
$$

NEZ041-046>049-061>064-073>077-083>087-241600-
SOUTH CENTRAL NEBRASKA

CITY           SKY/WX    TMP DP  RH WIND       PRES   REMARKS
GRAND ISLAND   SUNNY     75  64  68 S18G26    30.07F
AURORA         SUNNY     74  66  75 S18       30.09F
HASTINGS       SUNNY     76  62  62 S17G24    30.06F
HEBRON         SUNNY     75  62  62 SE15      30.10F
HOLDREGE       SUNNY     76  64  67 S17G26    30.05F
KEARNEY *      SUNNY     75  64  69 S18G25    30.05F
YORK           MOSUNNY   73  64  73 SE15      30.11S
$$

NEZ011>018-030>034-042>045-241600-
NORTHEAST NEBRASKA

CITY           SKY/WX    TMP DP  RH WIND       PRES   REMARKS
NORFOLK        CLOUDY    71  61  70 E13       30.14R
ALBION         SUNNY     71  62  72 SE12      30.08F
BLAIR          MOSUNNY   71  60  67 SE8       30.15R
COLUMBUS *     SUNNY     72  61  68 SE13      30.12R
FREMONT        MOSUNNY   73  60  63 SE13      30.14R
TEKAMAH        PTSUNNY   71  62  73 N14       30.22R
WAYNE          CLOUDY    69  64  85 E12       30.15R
$$

NEZ050>053-065>068-078-088>093-241600-
SOUTHEAST NEBRASKA

CITY           SKY/WX    TMP DP  RH WIND       PRES   REMARKS
LINCOLN        SUNNY     78  61  55 SE20      30.12F
OMAHA EPPLEY   PTSUNNY   74  59  59 SE10      30.15R
BEATRICE       SUNNY     74  62  68 SE12G18   30.13S
FALLS CITY     SUNNY     75  61  61 S15       30.14S
NEBRASKA CITY  SUNNY     73  60  63 S12       30.14S
PLATTSMOUTH    SUNNY     72  59  63 SE10      30.15R
$$

NEZ044-045-051>053-067-241600-
OMAHA AREA

CITY           SKY/WX    TMP DP  RH WIND       PRES   REMARKS
OMAHA EPPLEY   PTSUNNY   74  59  59 SE10      30.15R
BLAIR          MOSUNNY   71  60  67 SE8       30.15R
FREMONT        MOSUNNY   73  60  63 SE13      30.14R
MILLARD        MOSUNNY   74  61  63 E10G17    30.14S
OFFUTT AFB     MOSUNNY   75  62  64 SE10      30.14R
PLATTSMOUTH    SUNNY     72  59  63 SE10      30.15R
WAHOO          FAIR      74  59  59 SE14      30.13S
$$



USA.gov is the U.S. government's official web portal to all federal, state and local government web resources and services.